Tracking 33850 objects as of 19-Apr-2026
HD Live streaming from Space Station
objects crossing your sky now

ONEWEB-0430

Track ONEWEB-0430 now!
10-day predictions
ONEWEB-0430 is classified as:


NORAD ID: 50501
Int'l Code: 2021-132AJ
Perigee: 1,195.5 km
Apogee: 1,198.2 km
Inclination: 87.9 °
Period: 109.2 minutes
Semi major axis: 7567 km
RCS: Unknown
Launch date: December 27, 2021
Source: United Kingdom (UK)
Launch site: TYURATAM MISSILE AND SPACE COMPLEX (TTMTR)
Your satellite tracking list
Your tracking list is empty




NASA's NSSDC Master Catalog

Two Line Element Set (TLE):
1 50501U 21132AJ  26108.61231231  .00000019  00000-0  16521-4 0  9995
2 50501  87.9211 347.3072 0001768  73.7350 286.3977 13.18688311213776
Source of the keplerian elements: AFSPC